Weather History for KMPO - March, 2014

Change the Weather History Date:

Thursday, March 6, 2014

  Actual Average Record
Temperature  
Mean Temperature 14 °F 30 °F  
Max Temperature 23 °F 39 °F 67 °F (1992)
Min Temperature 5 °F 22 °F -5 °F (1909)
Degree Days  
Heating Degree Days 51 35  
Month to date heating degree days 294 213  
Since 1 July heating degree days 5721 5336  
Cooling Degree Days 0 0  
Month to date cooling degree days 0 0  
Year to date cooling degree days 0 0  
Moisture  
Dew Point -1 °F    
Average Humidity 59    
Maximum Humidity 87    
Minimum Humidity 31    
Precipitation  
Precipitation 0.00 in 0.09 in 2.50 in (2011)
Month to date precipitation T 0.44  
Year to date precipitation 6.39 5.70  
Sea Level Pressure  
Sea Level Pressure 30.50 in    
Wind  
Wind Speed 7 mph (East)    
Max Wind Speed 15 mph    
Max Gust Speed 19 mph    
Visibility 10 miles    
Events      
T = Trace of Precipitation, MM = Missing Value Source: NWS Daily Summary

Daily Weather History Graph

Daily Weather History Graph

Search for Another Location

Airport or City:

Trip Planner

Search our weather history database for the weather conditions in past years. The results will help you decide how hot, cold, wet, or windy it might be!

Date:

Astronomy

Mar. 06, 2014 Rise Set
Actual Time 6:27 AM EST 5:58 PM EST
Civil Twilight 6:00 AM EST 6:25 PM EST
Nautical Twilight 5:28 AM EST 6:57 PM EST
Astronomical Twilight 4:56 AM EST 7:29 PM EST
Moon 9:30 AM EST (3/6) No Moon Set
Length of Visible Light 12h 25m
Length of Day
11h 30m
Waxing Crescent, 32% of the Moon is Illuminated
Mar 6
Waxing Crescent
Mar 8
First Quarter
Mar 16
Full
Mar 23
Last Quarter
Mar 30
New

Hourly Weather History & Observations

Time (EST) Temp. Windchill Dew Point Humidity Pressure Visibility Wind Dir Wind Speed Gust Speed Precip Events Conditions
12:53 AM 10.9 °F -3.4 °F 3.9 °F 73% 30.45 in 10.0 mi North 11.5 mph - N/A   Clear
1:53 AM 10.0 °F 1.8 °F 3.0 °F 73% 30.47 in 10.0 mi North 4.6 mph - N/A   Clear
2:53 AM 9.0 °F -0.9 °F 3.0 °F 77% 30.46 in 10.0 mi NNE 5.8 mph - N/A   Clear
3:53 AM 8.1 °F -3.2 °F 1.9 °F 76% 30.48 in 10.0 mi NNE 6.9 mph - N/A   Clear
4:53 AM 5.0 °F -2.1 °F 1.0 °F 84% 30.49 in 10.0 mi North 3.5 mph - N/A   Clear
5:53 AM 6.1 °F -5.6 °F 1.0 °F 80% 30.51 in 10.0 mi NE 6.9 mph - N/A   Clear
6:53 AM 5.0 °F -4.1 °F -0.0 °F 80% 30.53 in 10.0 mi NE 4.6 mph - N/A   Clear
7:53 AM 8.1 °F -7.7 °F -5.1 °F 55% 30.56 in 10.0 mi NE 12.7 mph - N/A   Clear
8:53 AM 10.9 °F 0.2 °F -2.0 °F 56% 30.57 in 10.0 mi ENE 6.9 mph - N/A   Clear
9:53 AM 14.0 °F 3.9 °F -4.0 °F 45% 30.58 in 10.0 mi East 6.9 mph - N/A   Clear
10:53 AM 16.0 °F 3.6 °F -6.0 °F 38% 30.56 in 10.0 mi ESE 10.4 mph - N/A   Clear
11:53 AM 18.0 °F 6.9 °F -5.1 °F 36% 30.56 in 10.0 mi SE 9.2 mph - N/A   Clear
12:53 PM 19.9 °F 9.3 °F -5.1 °F 33% 30.54 in 10.0 mi SE 9.2 mph - N/A   Clear
1:53 PM 21.0 °F 9.9 °F -5.1 °F 32% 30.51 in 10.0 mi SE 10.4 mph - N/A   Clear
2:53 PM 21.9 °F 12.5 °F -5.1 °F 30% 30.50 in 10.0 mi ESE 8.1 mph - N/A   Clear
3:53 PM 21.9 °F 12.5 °F -6.0 °F 29% 30.49 in 10.0 mi SE 8.1 mph - N/A   Clear
4:53 PM 21.9 °F 13.4 °F -4.0 °F 32% 30.47 in 10.0 mi SE 6.9 mph - N/A   Clear
5:53 PM 19.9 °F 12.1 °F -2.9 °F 37% 30.50 in 10.0 mi SE 5.8 mph - N/A   Clear
6:53 PM 19.0 °F 12.3 °F -2.0 °F 40% 30.50 in 10.0 mi SE 4.6 mph - N/A   Clear
7:53 PM 18.0 °F 9.8 °F -0.9 °F 44% 30.49 in 10.0 mi SSE 5.8 mph - N/A   Clear
8:53 PM 18.0 °F 8.7 °F 1.0 °F 48% 30.49 in 10.0 mi SSE 6.9 mph - N/A   Clear
9:53 PM 16.0 °F 7.4 °F 1.9 °F 54% 30.46 in 10.0 mi SE 5.8 mph - N/A   Clear
10:53 PM 16.0 °F 5.3 °F 1.9 °F 54% 30.45 in 10.0 mi SE 8.1 mph - N/A   Clear
11:53 PM 16.0 °F 7.4 °F 3.0 °F 57% 30.43 in 10.0 mi SE 5.8 mph - N/A   Clear